| time (UTC) | temp F | wind direction | speed MPH | gust MPH | rain 1hr in | rain 24hr in | rain mn in | humidity % | barometer mb |
| 20260502152003 | 53 | 244 | 0.0 | 2.0 | 0.00 | 0.00 | 0.00 | 62 | 1013.4 |
| 20260502151503 | 53 | 256 | 1.0 | 2.0 | 0.00 | 0.00 | 0.00 | 62 | 1013.3 |
| 20260502151003 | 54 | 289 | 1.0 | 2.0 | 0.00 | 0.00 | 0.00 | 59 | 1013.4 |
| 20260502150719 | 54 | 313 | 1.0 | 2.0 | 0.00 | 0.00 | 0.00 | 58 | 1013.4 |
| 20260502130503 | 51 | 331 | 1.0 | 2.0 | 0.00 | 0.00 | 0.00 | 62 | 1012.9 |
| 20260502123503 | 50 | 35 | 2.0 | 3.0 | 0.00 | 0.00 | 0.00 | 69 | 1012.9 |
| 20260502123003 | 50 | 38 | 2.0 | 2.0 | 0.00 | 0.00 | 0.00 | 68 | 1013.0 |
| 20260502122718 | 50 | 38 | 2.0 | 2.0 | 0.00 | 0.00 | 0.00 | 68 | 1013.0 |
| 20260502122003 | 51 | 51 | 1.0 | 2.0 | 0.00 | 0.00 | 0.00 | 67 | 1013.1 |
| 20260502121503 | 52 | 76 | 1.0 | 2.0 | 0.00 | 0.00 | 0.00 | 66 | 1013.1 |
| 20260502121003 | 52 | 100 | 1.0 | 2.0 | 0.00 | 0.00 | 0.00 | 66 | 1013.1 |
| 20260502120503 | 52 | 124 | 0.0 | 2.0 | 0.00 | 0.00 | 0.00 | 65 | 1013.2 |
| 20260502115715 | 53 | 119 | 1.0 | 2.0 | 0.00 | 0.00 | 0.00 | 64 | 1013.4 |
| 20260502115216 | 53 | 98 | 1.0 | 2.0 | 0.00 | 0.00 | 0.00 | 64 | 1013.3 |
| 20260502114503 | 53 | 61 | 1.0 | 2.0 | 0.00 | 0.00 | 0.00 | 64 | 1013.3 |
| 20260502114003 | 52 | 59 | 1.0 | 1.0 | 0.00 | 0.00 | 0.00 | 64 | 1013.2 |
| 20260502113719 | 52 | 59 | 1.0 | 2.0 | 0.00 | 0.00 | 0.00 | 64 | 1013.1 |
| 20260502113003 | 52 | 59 | 1.0 | 2.0 | 0.00 | 0.00 | 0.00 | 63 | 1013.0 |
| 20260502112503 | 52 | 59 | 1.0 | 2.0 | 0.00 | 0.00 | 0.00 | 62 | 1013.1 |
| 20260502112003 | 52 | 63 | 1.0 | 2.0 | 0.00 | 0.00 | 0.00 | 61 | 1013.1 |
| 20260502111503 | 52 | 69 | 1.0 | 2.0 | 0.00 | 0.00 | 0.00 | 60 | 1013.2 |
| 20260502111003 | 52 | 61 | 1.0 | 2.0 | 0.00 | 0.00 | 0.00 | 60 | 1013.3 |
| 20260502110503 | 52 | 53 | 1.0 | 2.0 | 0.00 | 0.00 | 0.00 | 61 | 1013.3 |
| 20260502110003 | 52 | 58 | 2.0 | 3.0 | 0.00 | 0.00 | 0.00 | 62 | 1013.3 |
| 20260502105503 | 51 | 58 | 2.0 | 3.0 | 0.00 | 0.00 | 0.00 | 64 | 1013.2 |
| 20260502105003 | 51 | 53 | 2.0 | 3.0 | 0.00 | 0.00 | 0.00 | 65 | 1013.3 |
| 20260502104503 | 51 | 57 | 2.0 | 3.0 | 0.00 | 0.00 | 0.00 | 64 | 1013.3 |
| 20260502104003 | 51 | 65 | 2.0 | 3.0 | 0.00 | 0.00 | 0.00 | 63 | 1013.3 |
| 20260502103503 | 51 | 63 | 2.0 | 4.0 | 0.00 | 0.00 | 0.00 | 62 | 1013.3 |
| 20260502103003 | 51 | 65 | 3.0 | 4.0 | 0.00 | 0.00 | 0.00 | 61 | 1013.4 |
| 20260502102503 | 52 | 68 | 3.0 | 4.0 | 0.00 | 0.00 | 0.00 | 60 | 1013.4 |
| 20260502102003 | 52 | 69 | 2.0 | 3.0 | 0.00 | 0.00 | 0.00 | 60 | 1013.4 |
| 20260502101503 | 51 | 68 | 2.0 | 3.0 | 0.00 | 0.00 | 0.00 | 60 | 1013.3 |
| 20260502101003 | 51 | 64 | 2.0 | 3.0 | 0.00 | 0.00 | 0.00 | 60 | 1013.3 |
| 20260502100503 | 51 | 64 | 2.0 | 3.0 | 0.00 | 0.00 | 0.00 | 60 | 1013.3 |
| 20260502091503 | 56 | 0 | 0.0 | 0.0 | 0.00 | 0.00 | 0.00 | 52 | 1013.5 |
| 20260502091003 | 56 | 128 | 0.0 | 1.0 | 0.00 | 0.00 | 0.00 | 48 | 1013.6 |
| 20260502090503 | 55 | 128 | 1.0 | 2.0 | 0.00 | 0.00 | 0.00 | 48 | 1013.6 |
| 20260502071003 | 58 | 145 | 0.0 | 2.0 | 0.00 | 0.00 | 0.00 | 41 | 1014.2 |
| 20260502070503 | 58 | 136 | 0.0 | 2.0 | 0.00 | 0.00 | 0.00 | 40 | 1014.2 |
| 20260502070217 | 58 | 122 | 0.0 | 2.0 | 0.00 | 0.00 | 0.00 | 40 | 1014.2 |
| 20260502065718 | 58 | 105 | 1.0 | 2.0 | 0.00 | 0.00 | 0.00 | 40 | 1014.1 |
| 20260502065003 | 58 | 80 | 2.0 | 3.0 | 0.00 | 0.00 | 0.00 | 41 | 1014.1 |
| 20260502064503 | 58 | 76 | 2.0 | 6.0 | 0.00 | 0.00 | 0.00 | 41 | 1014.1 |
| 20260502064003 | 58 | 86 | 2.0 | 6.0 | 0.00 | 0.00 | 0.00 | 40 | 1014.1 |
| 20260502063503 | 58 | 93 | 2.0 | 5.0 | 0.00 | 0.00 | 0.00 | 39 | 1014.2 |
| 20260502063003 | 58 | 100 | 2.0 | 5.0 | 0.00 | 0.00 | 0.00 | 39 | 1014.2 |
| 20260502062503 | 59 | 111 | 2.0 | 4.0 | 0.00 | 0.00 | 0.00 | 39 | 1014.2 |
| 20260502062003 | 59 | 114 | 2.0 | 4.0 | 0.00 | 0.00 | 0.00 | 39 | 1014.2 |
| 20260502061503 | 59 | 126 | 1.0 | 4.0 | 0.00 | 0.00 | 0.00 | 39 | 1014.2 |
| 20260502061003 | 58 | 164 | 1.0 | 2.0 | 0.00 | 0.00 | 0.00 | 40 | 1014.3 |
| 20260502060503 | 58 | 170 | 1.0 | 2.0 | 0.00 | 0.00 | 0.00 | 40 | 1014.3 |
| 20260502060003 | 59 | 187 | 1.0 | 3.0 | 0.00 | 0.00 | 0.00 | 39 | 1014.4 |
| 20260502055503 | 60 | 212 | 2.0 | 5.0 | 0.00 | 0.00 | 0.00 | 38 | 1014.4 |
| 20260502055003 | 60 | 229 | 2.0 | 5.0 | 0.00 | 0.00 | 0.00 | 38 | 1014.4 |
| 20260502054503 | 60 | 239 | 2.0 | 4.0 | 0.00 | 0.00 | 0.00 | 38 | 1014.4 |
| 20260502054216 | 60 | 235 | 1.0 | 3.0 | 0.00 | 0.00 | 0.00 | 38 | 1014.4 |
| 20260502053503 | 60 | 246 | 2.0 | 4.0 | 0.00 | 0.00 | 0.00 | 38 | 1014.4 |
| 20260502053003 | 60 | 267 | 2.0 | 4.0 | 0.00 | 0.00 | 0.00 | 37 | 1014.4 |
| 20260502052719 | 60 | 279 | 2.0 | 4.0 | 0.00 | 0.00 | 0.00 | 37 | 1014.4 |
| 20260502052003 | 60 | 268 | 2.0 | 5.0 | 0.00 | 0.00 | 0.00 | 36 | 1014.4 |
| 20260502051717 | 60 | 260 | 2.0 | 5.0 | 0.00 | 0.00 | 0.00 | 36 | 1014.4 |
| 20260502051003 | 60 | 246 | 1.0 | 4.0 | 0.00 | 0.00 | 0.00 | 36 | 1014.3 |
| 20260502050503 | 60 | 240 | 1.0 | 2.0 | 0.00 | 0.00 | 0.00 | 36 | 1014.2 |
| 20260502050003 | 60 | 130 | 0.0 | 2.0 | 0.00 | 0.00 | 0.00 | 36 | 1014.2 |
| 20260502045717 | 60 | 149 | 0.0 | 2.0 | 0.00 | 0.00 | 0.00 | 36 | 1014.1 |
| 20260502045003 | 60 | 165 | 1.0 | 2.0 | 0.00 | 0.00 | 0.00 | 36 | 1014.0 |
| 20260502044504 | 60 | 167 | 1.0 | 2.0 | 0.00 | 0.00 | 0.00 | 35 | 1013.8 |
| 20260502044003 | 61 | 179 | 1.0 | 4.0 | 0.00 | 0.00 | 0.00 | 35 | 1013.9 |
| 20260502043503 | 60 | 172 | 1.0 | 4.0 | 0.00 | 0.00 | 0.00 | 35 | 1013.8 |
| 20260502043003 | 61 | 165 | 1.0 | 3.0 | 0.00 | 0.00 | 0.00 | 35 | 1013.8 |
| 20260502042503 | 61 | 174 | 1.0 | 2.0 | 0.00 | 0.00 | 0.00 | 35 | 1013.8 |
| 20260502042003 | 61 | 202 | 0.0 | 2.0 | 0.00 | 0.00 | 0.00 | 35 | 1013.8 |
| 20260502041503 | 61 | 222 | 0.0 | 1.0 | 0.00 | 0.00 | 0.00 | 35 | 1013.8 |
| 20260502041003 | 61 | 226 | 0.0 | 2.0 | 0.00 | 0.00 | 0.00 | 34 | 1013.7 |
| 20260502040503 | 62 | 224 | 1.0 | 3.0 | 0.00 | 0.00 | 0.00 | 34 | 1013.8 |
| 20260502040003 | 63 | 198 | 1.0 | 3.0 | 0.00 | 0.00 | 0.00 | 33 | 1013.8 |
| 20260502035716 | 63 | 178 | 2.0 | 6.0 | 0.00 | 0.00 | 0.00 | 34 | 1013.8 |
| 20260502035003 | 63 | 203 | 3.0 | 7.0 | 0.00 | 0.00 | 0.00 | 33 | 1013.7 |
| 20260502034718 | 63 | 216 | 2.0 | 7.0 | 0.00 | 0.00 | 0.00 | 33 | 1013.6 |
| 20260502034003 | 62 | 222 | 2.0 | 5.0 | 0.00 | 0.00 | 0.00 | 34 | 1013.5 |
| 20260502033716 | 62 | 230 | 2.0 | 5.0 | 0.00 | 0.00 | 0.00 | 34 | 1013.5 |
| 20260502033217 | 62 | 255 | 2.0 | 5.0 | 0.00 | 0.00 | 0.00 | 34 | 1013.4 |
| 20260502032503 | 63 | 240 | 1.0 | 3.0 | 0.00 | 0.00 | 0.00 | 34 | 1013.4 |
| 20260502032003 | 63 | 237 | 1.0 | 3.0 | 0.00 | 0.00 | 0.00 | 35 | 1013.4 |
| 20260502031716 | 63 | 240 | 1.0 | 3.0 | 0.00 | 0.00 | 0.00 | 35 | 1013.4 |
| 20260502031003 | 63 | 253 | 1.0 | 4.0 | 0.00 | 0.00 | 0.00 | 35 | 1013.3 |
| 20260502030718 | 64 | 261 | 1.0 | 4.0 | 0.00 | 0.00 | 0.00 | 34 | 1013.3 |
| 20260502030003 | 64 | 261 | 3.0 | 7.0 | 0.00 | 0.00 | 0.00 | 34 | 1013.4 |
| 20260502025503 | 64 | 259 | 3.0 | 9.0 | 0.00 | 0.00 | 0.00 | 34 | 1013.4 |
| 20260502025217 | 64 | 259 | 3.0 | 9.0 | 0.00 | 0.00 | 0.00 | 34 | 1013.3 |
| 20260502024503 | 64 | 247 | 4.0 | 10.0 | 0.00 | 0.00 | 0.00 | 35 | 1013.2 |
| 20260502024003 | 65 | 243 | 4.0 | 8.0 | 0.00 | 0.00 | 0.00 | 35 | 1013.2 |
| 20260502023503 | 65 | 242 | 4.0 | 8.0 | 0.00 | 0.00 | 0.00 | 34 | 1013.2 |
| 20260502023003 | 65 | 243 | 5.0 | 11.0 | 0.00 | 0.00 | 0.00 | 35 | 1013.1 |
| 20260502022504 | 65 | 246 | 5.0 | 11.0 | 0.00 | 0.00 | 0.00 | 34 | 1013.1 |
| 20260502022003 | 65 | 250 | 4.0 | 8.0 | 0.00 | 0.00 | 0.00 | 35 | 1013.1 |
| 20260502021503 | 65 | 250 | 4.0 | 8.0 | 0.00 | 0.00 | 0.00 | 37 | 1013.1 |
| 20260502021003 | 65 | 244 | 4.0 | 7.0 | 0.00 | 0.00 | 0.00 | 36 | 1013.1 |
| 20260502020718 | 65 | 242 | 4.0 | 8.0 | 0.00 | 0.00 | 0.00 | 37 | 1013.2 |
| 20260502020003 | 66 | 244 | 4.0 | 9.0 | 0.00 | 0.00 | 0.00 | 36 | 1013.2 |
| 20260502015503 | 66 | 241 | 4.0 | 9.0 | 0.00 | 0.00 | 0.00 | 36 | 1013.1 |
| 20260502015003 | 66 | 237 | 5.0 | 8.0 | 0.00 | 0.00 | 0.00 | 36 | 1013.2 |
| 20260502014503 | 66 | 236 | 5.0 | 8.0 | 0.00 | 0.00 | 0.00 | 36 | 1013.2 |
| 20260502014003 | 67 | 234 | 5.0 | 8.0 | 0.00 | 0.00 | 0.00 | 36 | 1013.3 |
| 20260502013503 | 67 | 231 | 5.0 | 9.0 | 0.00 | 0.00 | 0.00 | 35 | 1013.3 |
| 20260502013003 | 67 | 232 | 5.0 | 9.0 | 0.00 | 0.00 | 0.00 | 34 | 1013.3 |
| 20260502012503 | 68 | 233 | 5.0 | 9.0 | 0.00 | 0.00 | 0.00 | 34 | 1013.4 |
| 20260502012003 | 68 | 231 | 5.0 | 8.0 | 0.00 | 0.00 | 0.00 | 33 | 1013.3 |
| 20260502011503 | 68 | 226 | 6.0 | 10.0 | 0.00 | 0.00 | 0.00 | 32 | 1013.4 |
| 20260502011003 | 69 | 222 | 7.0 | 12.0 | 0.00 | 0.00 | 0.00 | 32 | 1013.5 |
| 20260502010503 | 69 | 220 | 8.0 | 12.0 | 0.00 | 0.00 | 0.00 | 31 | 1013.5 |
| 20260502010003 | 69 | 220 | 8.0 | 14.0 | 0.00 | 0.00 | 0.00 | 30 | 1013.5 |
| 20260502005503 | 70 | 222 | 8.0 | 15.0 | 0.00 | 0.00 | 0.00 | 31 | 1013.5 |
| 20260502005003 | 70 | 218 | 8.0 | 15.0 | 0.00 | 0.00 | 0.00 | 31 | 1013.5 |
| 20260502004503 | 70 | 218 | 7.0 | 15.0 | 0.00 | 0.00 | 0.00 | 30 | 1013.6 |
| 20260502004003 | 71 | 220 | 7.0 | 11.0 | 0.00 | 0.00 | 0.00 | 31 | 1013.6 |
| 20260502003503 | 70 | 222 | 7.0 | 12.0 | 0.00 | 0.00 | 0.00 | 29 | 1013.7 |
| 20260502003003 | 71 | 216 | 8.0 | 14.0 | 0.00 | 0.00 | 0.00 | 28 | 1013.7 |
| 20260502002503 | 71 | 210 | 7.0 | 14.0 | 0.00 | 0.00 | 0.00 | 29 | 1013.7 |
| 20260502002003 | 72 | 204 | 6.0 | 11.0 | 0.00 | 0.00 | 0.00 | 28 | 1013.8 |
| 20260502001503 | 71 | 205 | 5.0 | 10.0 | 0.00 | 0.00 | 0.00 | 26 | 1013.8 |
| 20260502001216 | 72 | 210 | 5.0 | 10.0 | 0.00 | 0.00 | 0.00 | 26 | 1013.8 |
| 20260502000717 | 71 | 201 | 5.0 | 8.0 | 0.00 | 0.00 | 0.00 | 27 | 1013.8 |
| 20260502000218 | 71 | 184 | 6.0 | 13.0 | 0.00 | 0.00 | 0.00 | 26 | 1013.8 |
| 20260501235503 | 71 | 186 | 4.0 | 13.0 | 0.00 | 0.00 | 0.00 | 25 | 1013.8 |
| 20260501235003 | 71 | 190 | 4.0 | 11.0 | 0.00 | 0.00 | 0.00 | 26 | 1013.8 |
| 20260501234717 | 71 | 187 | 5.0 | 12.0 | 0.00 | 0.00 | 0.00 | 25 | 1013.9 |
| 20260501234003 | 73 | 197 | 6.0 | 12.0 | 0.00 | 0.00 | 0.00 | 25 | 1014.0 |
| 20260501233503 | 72 | 187 | 6.0 | 12.0 | 0.00 | 0.00 | 0.00 | 25 | 1014.0 |
| 20260501233003 | 72 | 180 | 6.0 | 10.0 | 0.00 | 0.00 | 0.00 | 25 | 1014.1 |
| 20260501232503 | 72 | 179 | 5.0 | 9.0 | 0.00 | 0.00 | 0.00 | 24 | 1014.2 |
| 20260501232003 | 72 | 173 | 5.0 | 11.0 | 0.00 | 0.00 | 0.00 | 25 | 1014.2 |
| 20260501231503 | 73 | 173 | 6.0 | 11.0 | 0.00 | 0.00 | 0.00 | 25 | 1014.2 |
| 20260501231003 | 73 | 168 | 5.0 | 11.0 | 0.00 | 0.00 | 0.00 | 25 | 1014.2 |
| 20260501230504 | 73 | 163 | 6.0 | 12.0 | 0.00 | 0.00 | 0.00 | 25 | 1014.3 |
| 20260501230218 | 72 | 168 | 6.0 | 12.0 | 0.00 | 0.00 | 0.00 | 26 | 1014.3 |
| 20260501225503 | 73 | 171 | 5.0 | 11.0 | 0.00 | 0.00 | 0.00 | 24 | 1014.4 |
| 20260501225003 | 73 | 172 | 6.0 | 11.0 | 0.00 | 0.00 | 0.00 | 24 | 1014.5 |
| 20260501224503 | 73 | 181 | 6.0 | 11.0 | 0.00 | 0.00 | 0.00 | 24 | 1014.5 |
| 20260501224218 | 72 | 178 | 6.0 | 12.0 | 0.00 | 0.00 | 0.00 | 24 | 1014.6 |
| 20260501223503 | 73 | 164 | 5.0 | 12.0 | 0.00 | 0.00 | 0.00 | 24 | 1014.8 |
| 20260501223003 | 73 | 156 | 4.0 | 14.0 | 0.00 | 0.00 | 0.00 | 23 | 1014.8 |
| 20260501222503 | 74 | 183 | 5.0 | 14.0 | 0.00 | 0.00 | 0.00 | 23 | 1014.9 |
| 20260501222003 | 73 | 215 | 6.0 | 13.0 | 0.00 | 0.00 | 0.00 | 24 | 1015.0 |
| 20260501221503 | 73 | 214 | 6.0 | 13.0 | 0.00 | 0.00 | 0.00 | 24 | 1015.0 |
| 20260501221003 | 73 | 188 | 5.0 | 12.0 | 0.00 | 0.00 | 0.00 | 23 | 1015.0 |
| 20260501220503 | 72 | 172 | 4.0 | 8.0 | 0.00 | 0.00 | 0.00 | 24 | 1015.1 |
| 20260501220003 | 73 | 197 | 4.0 | 8.0 | 0.00 | 0.00 | 0.00 | 24 | 1015.1 |
| 20260501215503 | 73 | 209 | 5.0 | 13.0 | 0.00 | 0.00 | 0.00 | 24 | 1015.2 |
| 20260501215003 | 74 | 195 | 6.0 | 13.0 | 0.00 | 0.00 | 0.00 | 24 | 1015.4 |
| 20260501214503 | 72 | 167 | 4.0 | 9.0 | 0.00 | 0.00 | 0.00 | 25 | 1015.5 |
| 20260501214003 | 71 | 157 | 4.0 | 9.0 | 0.00 | 0.00 | 0.00 | 24 | 1015.5 |
| 20260501213503 | 72 | 167 | 7.0 | 15.0 | 0.00 | 0.00 | 0.00 | 24 | 1015.6 |
| 20260501213003 | 72 | 173 | 7.0 | 15.0 | 0.00 | 0.00 | 0.00 | 24 | 1015.6 |
| 20260501212503 | 71 | 171 | 5.0 | 11.0 | 0.00 | 0.00 | 0.00 | 24 | 1015.7 |
| 20260501212003 | 71 | 178 | 5.0 | 10.0 | 0.00 | 0.00 | 0.00 | 23 | 1015.7 |
| 20260501211503 | 72 | 197 | 6.0 | 13.0 | 0.00 | 0.00 | 0.00 | 25 | 1015.9 |
| 20260501211003 | 72 | 185 | 6.0 | 13.0 | 0.00 | 0.00 | 0.00 | 23 | 1015.9 |
| 20260501210503 | 71 | 154 | 5.0 | 13.0 | 0.00 | 0.00 | 0.00 | 25 | 1015.9 |
| 20260501210003 | 71 | 162 | 4.0 | 11.0 | 0.00 | 0.00 | 0.00 | 25 | 1016.1 |
| 20260501205503 | 71 | 168 | 4.0 | 12.0 | 0.00 | 0.00 | 0.00 | 24 | 1015.9 |
| 20260501205003 | 72 | 152 | 5.0 | 12.0 | 0.00 | 0.00 | 0.00 | 24 | 1016.1 |
| 20260501204503 | 72 | 154 | 4.0 | 11.0 | 0.00 | 0.00 | 0.00 | 24 | 1016.1 |
| 20260501204003 | 71 | 176 | 5.0 | 12.0 | 0.00 | 0.00 | 0.00 | 25 | 1016.1 |
| 20260501203504 | 73 | 167 | 5.0 | 12.0 | 0.00 | 0.00 | 0.00 | 23 | 1016.2 |
| 20260501203003 | 72 | 140 | 4.0 | 11.0 | 0.00 | 0.00 | 0.00 | 24 | 1016.2 |
| 20260501202503 | 70 | 154 | 4.0 | 12.0 | 0.00 | 0.00 | 0.00 | 26 | 1016.2 |
| 20260501202003 | 71 | 170 | 5.0 | 14.0 | 0.00 | 0.00 | 0.00 | 24 | 1016.3 |
| 20260501201503 | 71 | 169 | 5.0 | 14.0 | 0.00 | 0.00 | 0.00 | 24 | 1016.3 |
| 20260501201003 | 70 | 166 | 5.0 | 13.0 | 0.00 | 0.00 | 0.00 | 25 | 1016.3 |
| 20260501200503 | 72 | 181 | 5.0 | 13.0 | 0.00 | 0.00 | 0.00 | 24 | 1016.4 |
| 20260501200003 | 72 | 174 | 5.0 | 12.0 | 0.00 | 0.00 | 0.00 | 23 | 1016.4 |
| 20260501195503 | 72 | 164 | 6.0 | 12.0 | 0.00 | 0.00 | 0.00 | 24 | 1016.5 |
| 20260501195003 | 72 | 181 | 6.0 | 11.0 | 0.00 | 0.00 | 0.00 | 24 | 1016.4 |
| 20260501194503 | 71 | 181 | 7.0 | 13.0 | 0.00 | 0.00 | 0.00 | 24 | 1016.4 |
| 20260501194003 | 71 | 180 | 7.0 | 13.0 | 0.00 | 0.00 | 0.00 | 24 | 1016.5 |
| 20260501193503 | 72 | 191 | 7.0 | 14.0 | 0.00 | 0.00 | 0.00 | 25 | 1016.5 |
| 20260501193003 | 70 | 186 | 6.0 | 14.0 | 0.00 | 0.00 | 0.00 | 24 | 1016.5 |
| 20260501192503 | 71 | 169 | 6.0 | 13.0 | 0.00 | 0.00 | 0.00 | 26 | 1016.6 |
| 20260501192003 | 70 | 168 | 6.0 | 13.0 | 0.00 | 0.00 | 0.00 | 24 | 1016.7 |
| 20260501191503 | 71 | 181 | 7.0 | 11.0 | 0.00 | 0.00 | 0.00 | 24 | 1016.8 |
| 20260501191003 | 71 | 182 | 6.0 | 13.0 | 0.00 | 0.00 | 0.00 | 24 | 1016.8 |
| 20260501190503 | 71 | 169 | 7.0 | 19.0 | 0.00 | 0.00 | 0.00 | 25 | 1016.8 |
| 20260501190003 | 70 | 173 | 8.0 | 19.0 | 0.00 | 0.00 | 0.00 | 26 | 1016.8 |
| 20260501185503 | 72 | 181 | 8.0 | 15.0 | 0.00 | 0.00 | 0.00 | 25 | 1016.8 |
| 20260501185003 | 71 | 178 | 6.0 | 15.0 | 0.00 | 0.00 | 0.00 | 25 | 1016.8 |
| 20260501184504 | 71 | 177 | 6.0 | 10.0 | 0.00 | 0.00 | 0.00 | 27 | 1016.9 |
| 20260501184216 | 71 | 182 | 7.0 | 12.0 | 0.00 | 0.00 | 0.00 | 27 | 1016.9 |
| 20260501183717 | 70 | 178 | 6.0 | 16.0 | 0.00 | 0.00 | 0.00 | 28 | 1016.8 |
| 20260501183003 | 68 | 184 | 7.0 | 16.0 | 0.00 | 0.00 | 0.00 | 27 | 1016.9 |
| 20260501182503 | 70 | 199 | 6.0 | 12.0 | 0.00 | 0.00 | 0.00 | 27 | 1017.0 |
| 20260501182003 | 69 | 196 | 6.0 | 14.0 | 0.00 | 0.00 | 0.00 | 27 | 1017.0 |
| 20260501181503 | 70 | 178 | 6.0 | 14.0 | 0.00 | 0.00 | 0.00 | 27 | 1017.0 |
| 20260501181218 | 69 | 171 | 7.0 | 14.0 | 0.00 | 0.00 | 0.00 | 28 | 1017.0 |
| 20260501180503 | 68 | 164 | 6.0 | 14.0 | 0.00 | 0.00 | 0.00 | 28 | 1017.1 |
| 20260501180003 | 68 | 170 | 6.0 | 11.0 | 0.00 | 0.00 | 0.00 | 28 | 1017.1 |
| 20260501175503 | 68 | 179 | 7.0 | 14.0 | 0.00 | 0.00 | 0.00 | 27 | 1017.1 |
| 20260501175003 | 67 | 171 | 6.0 | 14.0 | 0.00 | 0.00 | 0.00 | 26 | 1017.1 |
| 20260501174503 | 68 | 165 | 6.0 | 12.0 | 0.00 | 0.00 | 0.00 | 27 | 1017.2 |
| 20260501174003 | 68 | 171 | 6.0 | 12.0 | 0.00 | 0.00 | 0.00 | 28 | 1017.2 |
| 20260501173503 | 67 | 169 | 7.0 | 14.0 | 0.00 | 0.00 | 0.00 | 28 | 1017.3 |
| 20260501173003 | 66 | 169 | 8.0 | 20.0 | 0.00 | 0.00 | 0.00 | 28 | 1017.3 |
| 20260501172503 | 66 | 172 | 8.0 | 20.0 | 0.00 | 0.00 | 0.00 | 28 | 1017.3 |
| 20260501172003 | 67 | 171 | 7.0 | 15.0 | 0.00 | 0.00 | 0.00 | 28 | 1017.2 |
| 20260501171503 | 66 | 166 | 5.0 | 15.0 | 0.00 | 0.00 | 0.00 | 30 | 1017.3 |
| 20260501171003 | 65 | 154 | 3.0 | 7.0 | 0.00 | 0.00 | 0.00 | 32 | 1017.2 |
| 20260501170718 | 64 | 157 | 2.0 | 7.0 | 0.00 | 0.00 | 0.00 | 31 | 1017.3 |
| 20260501170003 | 64 | 215 | 2.0 | 5.0 | 0.00 | 0.00 | 0.00 | 32 | 1017.3 |
| 20260501165503 | 64 | 219 | 3.0 | 6.0 | 0.00 | 0.00 | 0.00 | 35 | 1017.3 |
| 20260501165003 | 63 | 196 | 4.0 | 7.0 | 0.00 | 0.00 | 0.00 | 34 | 1017.2 |
| 20260501164718 | 63 | 192 | 4.0 | 7.0 | 0.00 | 0.00 | 0.00 | 36 | 1017.3 |
| 20260501164003 | 62 | 200 | 3.0 | 6.0 | 0.00 | 0.00 | 0.00 | 36 | 1017.3 |
| 20260501163503 | 60 | 192 | 2.0 | 5.0 | 0.00 | 0.00 | 0.00 | 37 | 1017.3 |
| 20260501163003 | 59 | 204 | 3.0 | 5.0 | 0.00 | 0.00 | 0.00 | 37 | 1017.4 |
| 20260501162718 | 59 | 209 | 3.0 | 5.0 | 0.00 | 0.00 | 0.00 | 38 | 1017.4 |
| 20260501162003 | 58 | 214 | 2.0 | 4.0 | 0.00 | 0.00 | 0.00 | 39 | 1017.4 |
| 20260501161503 | 58 | 230 | 2.0 | 4.0 | 0.00 | 0.00 | 0.00 | 37 | 1017.5 |
| 20260501161003 | 59 | 244 | 2.0 | 4.0 | 0.00 | 0.00 | 0.00 | 37 | 1017.4 |
| 20260501160503 | 58 | 244 | 2.0 | 4.0 | 0.00 | 0.00 | 0.00 | 36 | 1017.4 |
| 20260501160003 | 57 | 254 | 2.0 | 4.0 | 0.00 | 0.00 | 0.00 | 39 | 1017.5 |
| 20260501155503 | 57 | 261 | 2.0 | 4.0 | 0.00 | 0.00 | 0.00 | 40 | 1017.5 |
| 20260501155003 | 57 | 244 | 2.0 | 4.0 | 0.00 | 0.00 | 0.00 | 37 | 1017.5 |
| 20260501154718 | 56 | 238 | 2.0 | 4.0 | 0.00 | 0.00 | 0.00 | 38 | 1017.5 |
| 20260501154003 | 56 | 249 | 1.0 | 3.0 | 0.00 | 0.00 | 0.00 | 36 | 1017.4 |
| 20260501153503 | 56 | 245 | 1.0 | 3.0 | 0.00 | 0.00 | 0.00 | 37 | 1017.4 |
| 20260501153003 | 55 | 226 | 2.0 | 3.0 | 0.00 | 0.00 | 0.00 | 38 | 1017.5 |